Location: Coll
(42.4728°N, 0.7714°E)
Time: 12:33:53
(UTC+00:00)

DELTA 2 R/B (1) - Pass Details

Date: 23 October 2020
Orbit: 790 x 803 km, 39.6° (Epoch: 30 November)

Event Time Altitude Azimuth Distance (km) Brightness Sun altitude
Exits shadow 03:28:23 44° 115° (ESE) 1,087 4.4 -32.1°
Drops below altitude 10° 03:32:18 10° 97° (E) 2,373 6.8 -31.4°
Sets 03:34:48 0° 95° (E) 3,304 7.8 -30.9°
